EN

Hourly Weather Allmen

Today, 28 January, Thursday

Time Temperature Precipitation Wind Pressure Humidity
00:00 -1°C° 1.2 mm 1 mps 641 mmHg 98%
01:00 -1°C° 1.2 mm 1 mps 641 mmHg 98%
02:00 -1°C° 1.1 mm 1 mps 641 mmHg 98%
03:00 -1°C° 1.1 mm 1 mps 640 mmHg 98%
04:00 -1°C° 1.1 mm 1 mps 640 mmHg 98%
05:00 -3°C° 1.5 mm 2 mps 640 mmHg 98%
06:00 -3°C° 1.5 mm 2 mps 639 mmHg 98%
07:00 -2°C° 1.5 mm 2 mps 639 mmHg 98%
08:00 -2°C° 2 mm 2 mps 638 mmHg 98%
09:00 -2°C° 2 mm 2 mps 638 mmHg 98%
10:00 -2°C° 2 mm 3 mps 638 mmHg 99%
11:00 -1°C° 2.5 mm 3 mps 638 mmHg 99%
12:00 -1°C° 2.5 mm 3 mps 637 mmHg 99%
13:00 -1°C° 2.5 mm 3 mps 637 mmHg 99%
14:00 -1°C° 2.1 mm 3 mps 637 mmHg 99%
15:00 -1°C° 2.1 mm 3 mps 637 mmHg 99%
16:00 -1°C° 2.1 mm 3 mps 637 mmHg 99%
17:00 -1°C° 2.3 mm 3 mps 637 mmHg 98%
18:00 0°C° 2.3 mm 3 mps 638 mmHg 98%
19:00 0°C° 2.3 mm 3 mps 638 mmHg 98%
20:00 0°C° 1.4 mm 3 mps 638 mmHg 98%
21:00 0°C° 1.4 mm 3 mps 638 mmHg 98%
22:00 0°C° 1.4 mm 3 mps 638 mmHg 98%
23:00 -1°C° 0.7 mm 2 mps 638 mmHg 97%

Tomorrow, 29 January, Friday

Time Temperature Precipitation Wind Pressure Humidity
00:00 -1°C° 0.7 mm 2 mps 638 mmHg 97%
01:00 -1°C° 0.7 mm 2 mps 638 mmHg 97%
02:00 -1°C° 0.1 mm 2 mps 637 mmHg 96%
03:00 -1°C° 0.1 mm 2 mps 637 mmHg 95%
04:00 -1°C° 0.1 mm 2 mps 636 mmHg 94%
05:00 -1°C° 0.7 mm 2 mps 635 mmHg 95%
06:00 -1°C° 0.7 mm 2 mps 635 mmHg 95%
07:00 -1°C° 0.7 mm 2 mps 634 mmHg 96%
08:00 -1°C° 2.8 mm 2 mps 634 mmHg 96%
09:00 -1°C° 2.8 mm 3 mps 634 mmHg 97%
10:00 -1°C° 2.8 mm 3 mps 634 mmHg 97%
11:00 -1°C° 2.4 mm 3 mps 634 mmHg 97%
12:00 -1°C° 2.4 mm 3 mps 635 mmHg 96%
13:00 -1°C° 2.4 mm 3 mps 635 mmHg 96%
14:00 -1°C° 0.4 mm 3 mps 635 mmHg 96%
15:00 -1°C° 0.4 mm 3 mps 635 mmHg 96%
16:00 -1°C° 0.4 mm 3 mps 634 mmHg 95%
17:00 -2°C° 1.9 mm 3 mps 634 mmHg 96%
18:00 -2°C° 1.9 mm 3 mps 634 mmHg 97%
19:00 -2°C° 1.9 mm 3 mps 634 mmHg 98%
20:00 -2°C° 2 mm 3 mps 635 mmHg 97%
21:00 -2°C° 2 mm 3 mps 635 mmHg 97%
22:00 -2°C° 2 mm 3 mps 635 mmHg 97%
23:00 -2°C° 1.2 mm 3 mps 636 mmHg 97%

Day after tomorrow, 30 January, Saturday

Time Temperature Precipitation Wind Pressure Humidity
00:00 -2°C° 1.2 mm 3 mps 636 mmHg 97%
01:00 -2°C° 1.2 mm 3 mps 636 mmHg 97%
02:00 -4°C° 0.1 mm 3 mps 636 mmHg 95%
03:00 -4°C° 0.1 mm 2 mps 635 mmHg 94%
04:00 -4°C° 0.1 mm 2 mps 635 mmHg 93%
05:00 -4°C° 0 mm 2 mps 634 mmHg 90%
06:00 -5°C° 0 mm 2 mps 634 mmHg 87%
07:00 -5°C° 0 mm 2 mps 633 mmHg 85%
08:00 -4°C° 0 mm 2 mps 633 mmHg 84%
09:00 -3°C° 0 mm 2 mps 633 mmHg 84%
10:00 -1°C° 0 mm 1 mps 633 mmHg 83%
11:00 0°C° 0.2 mm 1 mps 632 mmHg 87%
12:00 0°C° 0.2 mm 1 mps 632 mmHg 91%
13:00 +1°C° 0.2 mm 1 mps 631 mmHg 94%
14:00 +1°C° 0.7 mm 1 mps 630 mmHg 95%
15:00 0°C° 0.7 mm 1 mps 630 mmHg 96%
16:00 0°C° 0.7 mm 1 mps 629 mmHg 97%
17:00 0°C° 1.3 mm 1 mps 629 mmHg 97%
18:00 0°C° 1.3 mm 1 mps 630 mmHg 97%
19:00 0°C° 1.3 mm 1 mps 630 mmHg 98%
20:00 0°C° 1.5 mm 1 mps 630 mmHg 98%
21:00 -2°C° 1.5 mm 2 mps 630 mmHg 98%
22:00 -2°C° 1.5 mm 2 mps 630 mmHg 98%
23:00 0°C° 1 mm 1 mps 630 mmHg 97%

31 January, Sunday

Time Temperature Precipitation Wind Pressure Humidity
00:00 0°C° 1 mm 1 mps 630 mmHg 97%
01:00 0°C° 1 mm 1 mps 630 mmHg 97%
02:00 0°C° 0.5 mm 1 mps 630 mmHg 97%
03:00 0°C° 0.5 mm 1 mps 630 mmHg 97%
04:00 -1°C° 0.5 mm 1 mps 630 mmHg 98%
05:00 -1°C° 0.4 mm 1 mps 630 mmHg 98%
06:00 -1°C° 0.4 mm 1 mps 630 mmHg 98%
07:00 -1°C° 0.4 mm 1 mps 630 mmHg 98%
08:00 -1°C° 0 mm 1 mps 630 mmHg 97%
09:00 0°C° 0 mm 1 mps 630 mmHg 96%
10:00 0°C° 0 mm 1 mps 630 mmHg 95%
11:00 +1°C° 0 mm 1 mps 630 mmHg 94%
12:00 +1°C° 0 mm 1 mps 630 mmHg 93%
13:00 +1°C° 0 mm 1 mps 629 mmHg 92%
14:00 +1°C° 0 mm 1 mps 629 mmHg 93%
15:00 +1°C° 0 mm 1 mps 628 mmHg 93%
16:00 +1°C° 0 mm 1 mps 628 mmHg 93%
17:00 +1°C° 0.1 mm 1 mps 628 mmHg 92%
18:00 0°C° 0.1 mm 1 mps 627 mmHg 91%
19:00 0°C° 0.1 mm 1 mps 627 mmHg 90%
20:00 0°C° 0.1 mm 1 mps 627 mmHg 90%
21:00 -1°C° 0.1 mm 1 mps 627 mmHg 90%
22:00 -1°C° 0.1 mm 1 mps 626 mmHg 91%
23:00 -1°C° 0.2 mm 1 mps 626 mmHg 91%

1 February, Monday

Time Temperature Precipitation Wind Pressure Humidity
00:00 -1°C° 0.2 mm 1 mps 626 mmHg 92%
01:00 -1°C° 0.2 mm 1 mps 626 mmHg 92%
02:00 -1°C° 0.7 mm 1 mps 626 mmHg 93%
03:00 -1°C° 0.7 mm 1 mps 626 mmHg 95%
04:00 -1°C° 0.7 mm 1 mps 626 mmHg 96%
05:00 -1°C° 1.6 mm 1 mps 626 mmHg 97%
06:00 -1°C° 1.6 mm 1 mps 627 mmHg 97%
07:00 -1°C° 1.6 mm 1 mps 627 mmHg 98%
08:00 -1°C° 1.7 mm 1 mps 628 mmHg 98%
09:00 -1°C° 1.7 mm 1 mps 629 mmHg 98%
10:00 0°C° 1.7 mm 1 mps 630 mmHg 98%
11:00 0°C° 1.2 mm 1 mps 630 mmHg 98%
12:00 -2°C° 1.2 mm 2 mps 631 mmHg 98%
13:00 -1°C° 1.2 mm 2 mps 631 mmHg 98%
14:00 -2°C° 1.3 mm 2 mps 632 mmHg 98%
15:00 -2°C° 1.3 mm 2 mps 632 mmHg 98%
16:00 -2°C° 1.3 mm 2 mps 633 mmHg 98%
17:00 -2°C° 1.1 mm 2 mps 634 mmHg 98%
18:00 -2°C° 1.1 mm 2 mps 635 mmHg 98%
19:00 -2°C° 1.1 mm 2 mps 636 mmHg 98%
20:00 -2°C° 0.6 mm 2 mps 636 mmHg 98%
21:00 -2°C° 0.6 mm 2 mps 637 mmHg 97%
22:00 0°C° 0.6 mm 1 mps 637 mmHg 97%
23:00 0°C° 0.5 mm 1 mps 638 mmHg 97%

2 February, Tuesday

Time Temperature Precipitation Wind Pressure Humidity
00:00 -2°C° 0.5 mm 2 mps 638 mmHg 97%
01:00 -2°C° 0.5 mm 2 mps 638 mmHg 97%
02:00 -2°C° 0.4 mm 2 mps 638 mmHg 96%
03:00 -2°C° 0.4 mm 2 mps 638 mmHg 95%
04:00 -3°C° 0.4 mm 2 mps 638 mmHg 94%
05:00 -2°C° 0 mm 2 mps 638 mmHg 91%
06:00 -2°C° 0 mm 2 mps 638 mmHg 88%
07:00 -2°C° 0 mm 2 mps 638 mmHg 86%
08:00 -2°C° 0.5 mm 2 mps 638 mmHg 88%
09:00 -1°C° 0.5 mm 2 mps 638 mmHg 91%
10:00 -1°C° 0.5 mm 3 mps 638 mmHg 93%
11:00 0°C° 0.2 mm 3 mps 638 mmHg 93%
12:00 +1°C° 0.2 mm 2 mps 638 mmHg 93%
13:00 +2°C° 0.2 mm 2 mps 638 mmHg 93%
14:00 +2°C° 0.7 mm 2 mps 638 mmHg 94%
15:00 +2°C° 0.7 mm 2 mps 638 mmHg 95%
16:00 +2°C° 0.7 mm 2 mps 638 mmHg 97%
17:00 +2°C° 0.4 mm 2 mps 638 mmHg 96%
18:00 +2°C° 0.4 mm 2 mps 638 mmHg 95%
19:00 +2°C° 0.4 mm 2 mps 638 mmHg 94%
20:00 +2°C° 0.3 mm 2 mps 638 mmHg 94%
21:00 +1°C° 0.3 mm 2 mps 638 mmHg 95%
22:00 +1°C° 0.3 mm 2 mps 639 mmHg 95%
23:00 +1°C° 0.9 mm 2 mps 638 mmHg 95%
Show more